Regional Weather Roundup
Issued by NWS

Home | Current Version | Previous Version | Text Only | Print | Product List | Glossary Off
Versions: 1 2 3 4 5 6 7 8 9 10 11 12 13 14 15 16 17 18 19 20 21 22 23 24 25 26 27 28 29 30 31 32 33 34 35 36 37 38 39 40 41 42 43 44 45 46

000
ASUS45 KCYS 030410
RWRWY

WYOMING REGIONAL WEATHER ROUNDUP
NATIONAL WEATHER SERVICE CHEYENNE WY
1000 PM MDT SUN AUG 02 2015

NOTE:  "FAIR" INDICATES FEW OR NO CLOUDS BELOW 12,000 FEET
WITH NO SIGNIFICANT WEATHER AND/OR OBSTRUCTIONS TO VISIBILITY.

WYZ001-030500-
YELLOWSTONE NATIONAL PARK

CITY           SKY/WX    TMP DP  RH WIND       PRES   REMARKS
LK YELLOWSTONE   N/A     55  37  50 CALM      30.28R
W YELLOWSTONE  NOT AVBL

$$
WYZ002>013-054>058-071-098>099-030500-
NORTHERN WYOMING

CITY           SKY/WX    TMP DP  RH WIND       PRES   REMARKS
JACKSON        NOT AVBL
CODY           FAIR      72  39  30 NW5       30.09R
GREYBULL       FAIR      83  36  18 NW10      29.94R
WORLAND        FAIR      80  36  20 E13       29.98R
SHERIDAN       FAIR      67  46  47 CALM      30.03R
BUFFALO        FAIR      70  42  36 NW6       30.11R
GILLETTE         N/A     62  47  57 CALM      30.06R
HULETT         FAIR      68  50  52 E7        30.08S
NEWCASTLE      FAIR      73  46  38 MISG      30.05R

$$
WYZ014>020-022>026-101>103-030500-
CENTRAL WYOMING

CITY           SKY/WX    TMP DP  RH WIND       PRES   REMARKS
BIG PINEY      FAIR      75  26  16 SE9       30.18R
PINEDALE       FAIR      64  32  29 W3        30.18S
DUBOIS         FAIR      64  25  22 S5        30.21R
LANDER         FAIR      77  26  15 SW13      30.05R
RIVERTON       FAIR      77  23  13 E9        30.07R
CASPER         FAIR      73  40  30 N10       30.06R
DOUGLAS        FAIR      73  49  42 E9        30.07R

$$
WYZ021-027>030-104>119-030500-
SOUTHERN WYOMING

CITY           SKY/WX    TMP DP  RH WIND       PRES   REMARKS
EVANSTON       FAIR      68  42  38 SW13      30.17R
KEMMERER       FAIR     N/A N/A N/A S7        30.16S
FORT BRIDGER   CLEAR     73  39  29 W15       30.18S
ROCK SPRINGS   FAIR      73  33  23 NE6       30.13R
DIXON          FAIR      71  44  38 SW9       30.19R
RAWLINS        FAIR      74  32  21 NE9       30.15R
SARATOGA       FAIR      68  37  32 SE8       30.18R
LARAMIE        FAIR      66  42  41 S6        30.21R
CHEYENNE       FAIR      71  49  45 CALM      30.14S
TORRINGTON     FAIR      72  52  49 E9        30.00R
PINE BLUFFS    FAIR      68  50  52 S6        30.09R

$$



USA.gov is the U.S. government's official web portal to all federal, state and local government web resources and services.